Location: Unspecified
(0.0000°N, 0.0000°E)
Time: 23:37:03
(UTC+00:00)

Envisat - Pass Details

Date: 27 November 2022
Orbit: 763 x 765 km, 98.2° (Epoch: 02 December)

Event Time Altitude Azimuth Distance (km) Brightness Sun altitude
Exits shadow 03:23:07 32° 72° (ENE) 1,288 4.4 -33.3°
Maximum altitude 03:24:19 37° 102° (ESE) 1,180 4.3 -33.1°
Drops below altitude 10° 03:28:57 10° 169° (SSE) 2,300 5.8 -32.0°
Sets 03:31:25 0° 177° (S) 3,228 6.6 -31.5°
